Date String (YYYY-MM-DD hh:mm:ss) UTC,Instrument flags,Ambient pressure (hPa),Sample flow (lpm),Bypass flow (lpm),Sample temperature (°C),Ambient temperature (°C),ASC tube jacket temperature (°C),LED temperature (°C),Box temperature (°C),Sample RH (%),Span deviation,Mass concentration (μg/m³),Mass concentration (μg/m³),Mass concentration (μg/m³)
DateTimeUTC,F1_M11,P_M11,Q1_M11,Q2_M11,T1_M11,T2_M11,T3_M11,T4_M11,T5_M11,U1_M11,ZSPAN_M11,X0_M11,X2_M11,X1_M11
2022-06-10 03:00:00,,0825.4,4.98,0.00,28.9,27.1,00.0,37.7,30.6,20.8,0000.0,0015.54,0005.61,0003.18
2022-06-10 03:01:00,,0825.4,5.00,0.00,28.8,27.2,00.0,37.7,30.6,20.5,0000.0,0016.22,0005.63,0003.19
2022-06-10 03:02:00,,0825.4,5.01,0.00,28.8,27.3,00.0,37.7,30.7,20.5,0000.0,0016.22,0005.62,0003.19
2022-06-10 03:03:00,,0825.4,4.99,0.00,28.9,27.5,00.0,37.7,30.8,20.1,0000.0,0016.00,0005.58,0003.18
2022-06-10 03:04:00,,0825.5,5.01,0.00,28.9,27.6,00.0,37.8,30.8,20.0,0000.0,0016.25,0005.54,0003.17
2022-06-10 03:05:00,,0825.4,5.00,0.00,28.9,27.7,00.0,37.8,30.9,19.8,0000.0,0017.89,0005.54,0003.16
2022-06-10 03:06:00,,0825.4,5.00,0.00,28.9,27.9,00.0,37.8,30.9,19.8,0000.0,0018.57,0005.48,0003.17
2022-06-10 03:07:00,,0825.5,4.99,0.00,29.0,28.0,00.0,37.8,31.0,19.6,0000.0,0018.92,0005.41,0003.16
2022-06-10 03:08:00,,0825.4,4.99,0.00,29.0,28.1,00.0,37.8,31.0,19.4,0000.0,0018.76,0005.37,0003.15
2022-06-10 03:09:00,,0825.4,5.01,0.00,29.0,28.2,00.0,37.8,31.0,19.3,0000.0,0019.04,0005.37,0003.14
2022-06-10 03:10:00,,0825.5,5.00,0.00,29.1,28.3,00.0,37.9,31.1,19.1,0000.0,0018.96,0005.43,0003.15
2022-06-10 03:11:00,,0825.4,5.00,0.00,29.1,28.3,00.0,37.9,31.1,18.9,0000.0,0019.52,0005.51,0003.16
2022-06-10 03:12:00,,0825.4,4.99,0.00,29.1,28.1,00.0,37.9,31.1,18.8,0000.0,0019.32,0005.55,0003.15
2022-06-10 03:13:00,,0825.4,5.01,0.00,29.1,27.4,00.0,37.8,30.9,18.8,0000.0,0018.77,0005.57,0003.14
2022-06-10 03:14:00,,0825.4,5.01,0.00,29.0,27.1,00.0,37.8,30.8,18.7,0000.0,0018.79,0005.58,0003.14
2022-06-10 03:15:00,,0825.5,5.00,0.00,28.9,27.0,00.0,37.8,30.7,19.3,0000.0,0018.43,0005.58,0003.14
2022-06-10 03:16:00,,0825.5,5.00,0.00,28.9,27.1,00.0,37.8,30.7,19.7,0000.0,0017.01,0005.60,0003.16
2022-06-10 03:17:00,,0825.5,5.00,0.00,28.9,27.2,00.0,37.8,30.7,19.4,0000.0,0016.18,0005.54,0003.15
2022-06-10 03:18:00,,0825.5,5.00,0.00,28.9,27.4,00.0,37.8,30.8,19.8,0000.0,0016.23,0005.54,0003.14
2022-06-10 03:19:00,,0825.6,5.00,0.00,28.9,27.5,00.0,37.8,30.8,19.9,0000.0,0016.90,0005.55,0003.13
2022-06-10 03:20:00,,0825.6,5.00,0.00,28.9,27.7,00.0,37.8,30.8,20.0,0000.0,0016.30,0005.52,0003.12
2022-06-10 03:21:00,,0825.6,5.00,0.00,29.0,27.8,00.0,37.8,30.9,19.8,0000.0,0016.26,0005.48,0003.12
2022-06-10 03:22:00,,0825.6,4.99,0.00,29.0,27.9,00.0,37.8,30.9,19.2,0000.0,0016.39,0005.44,0003.11
2022-06-10 03:23:00,,0825.7,5.00,0.00,29.0,28.0,00.0,37.8,31.0,19.6,0000.0,0016.03,0005.40,0003.11
2022-06-10 03:24:00,,0825.7,4.99,0.00,29.0,28.1,00.0,37.9,31.0,19.5,0000.0,0016.43,0005.41,0003.12
2022-06-10 03:25:00,,0825.7,5.01,0.00,29.1,28.2,00.0,37.9,31.1,18.9,0000.0,0016.13,0005.44,0003.12
2022-06-10 03:26:00,,0825.9,5.00,0.00,29.1,28.3,00.0,37.9,31.1,18.8,0000.0,0016.52,0005.51,0003.12
2022-06-10 03:27:00,,0825.9,5.01,0.00,29.1,28.3,00.0,37.9,31.1,18.7,0000.0,0016.79,0005.51,0003.10
2022-06-10 03:28:00,,0825.9,5.00,0.00,29.2,28.4,00.0,37.9,31.1,18.9,0000.0,0017.26,0005.53,0003.13
2022-06-10 03:29:00,,0825.9,5.00,0.00,29.2,27.8,00.0,37.9,31.0,19.0,0000.0,0017.30,0005.51,0003.14
2022-06-10 03:30:00,,0826.0,5.00,0.00,29.1,27.2,00.0,37.8,30.8,19.0,0000.0,0017.91,0005.55,0003.14
2022-06-10 03:31:00,,0825.9,5.01,0.00,29.0,27.0,00.0,37.8,30.7,19.2,0000.0,0019.14,0005.59,0003.15
2022-06-10 03:32:00,,0825.9,5.01,0.00,28.9,27.1,00.0,37.8,30.7,19.6,0000.0,0020.01,0005.65,0003.16
2022-06-10 03:33:00,,0826.0,4.99,0.00,28.9,27.2,00.0,37.8,30.7,19.6,0000.0,0019.43,0005.69,0003.16
2022-06-10 03:34:00,,0826.0,5.00,0.00,28.9,27.3,00.0,37.8,30.7,19.3,0000.0,0019.66,0005.74,0003.16
2022-06-10 03:35:00,,0826.1,5.00,0.00,28.9,27.4,00.0,37.8,30.8,18.7,0000.0,0019.52,0005.74,0003.15
2022-06-10 03:36:00,,0826.2,5.01,0.00,28.9,27.6,00.0,37.8,30.8,18.8,0000.0,0020.19,0005.75,0003.15
2022-06-10 03:37:00,,0826.2,5.01,0.00,28.9,27.7,00.0,37.8,30.9,18.8,0000.0,0020.13,0005.70,0003.15
2022-06-10 03:38:00,,0826.2,5.01,0.00,29.0,27.8,00.0,37.8,30.9,18.9,0000.0,0020.63,0005.73,0003.15
2022-06-10 03:39:00,,0826.1,5.00,0.00,29.0,27.9,00.0,37.8,31.0,19.0,0000.0,0022.28,0005.77,0003.15
2022-06-10 03:40:00,,0826.2,5.00,0.00,29.0,28.0,00.0,37.9,31.0,19.0,0000.0,0022.35,0005.74,0003.15
2022-06-10 03:41:00,,0826.2,5.00,0.00,29.1,28.1,00.0,37.9,31.0,19.3,0000.0,0021.62,0005.70,0003.15
2022-06-10 03:42:00,,0826.2,4.98,0.00,29.1,28.2,00.0,37.9,31.1,19.1,0000.0,0020.88,0005.70,0003.14
2022-06-10 03:43:00,,0826.4,5.00,0.00,29.1,28.3,00.0,37.9,31.1,19.1,0000.0,0020.53,0005.68,0003.14
2022-06-10 03:44:00,,0826.5,5.00,0.00,29.2,28.4,00.0,37.9,31.2,19.6,0000.0,0020.69,0005.69,0003.16
2022-06-10 03:45:00,,0826.5,5.01,0.00,29.2,28.4,00.0,38.0,31.2,19.8,0000.0,0020.76,0005.66,0003.16
2022-06-10 03:46:00,,0826.6,5.00,0.00,29.2,28.3,00.0,38.0,31.2,20.2,0000.0,0021.16,0005.66,0003.17
2022-06-10 03:47:00,,0826.7,5.00,0.00,29.2,27.5,00.0,37.9,30.9,20.4,0000.0,0020.62,0005.70,0003.18
2022-06-10 03:48:00,,0826.7,4.99,0.00,29.1,27.1,00.0,37.9,30.8,20.6,0000.0,0021.36,0005.75,0003.20
2022-06-10 03:49:00,,0826.7,5.01,0.00,29.0,27.0,00.0,37.9,30.8,20.9,0000.0,0021.47,0005.82,0003.23
2022-06-10 03:50:00,,0826.7,5.01,0.00,29.0,27.1,00.0,37.9,30.7,21.1,0000.0,0020.86,0005.95,0003.25
2022-06-10 03:51:00,,0826.7,4.99,0.00,29.0,27.2,00.0,37.9,30.8,21.3,0000.0,0022.46,0006.07,0003.25
2022-06-10 03:52:00,,0826.8,5.00,0.00,28.9,27.4,00.0,37.9,30.8,21.4,0000.0,0025.21,0006.21,0003.28
2022-06-10 03:53:00,,0826.9,5.00,0.00,29.0,27.5,00.0,37.9,30.8,21.6,0000.0,0026.70,0006.38,0003.30
2022-06-10 03:54:00,,0827.1,4.99,0.00,29.0,27.7,00.0,37.9,30.9,21.7,0000.0,0026.78,0006.45,0003.32
2022-06-10 03:55:00,,0827.0,5.00,0.00,29.0,27.8,00.0,37.9,30.9,21.8,0000.0,0026.67,0006.46,0003.32
2022-06-10 03:56:00,,0826.9,5.01,0.00,29.0,27.9,00.0,37.9,31.0,21.9,0000.0,0027.89,0006.54,0003.33
2022-06-10 03:57:00,,0826.9,4.99,0.00,29.1,28.0,00.0,37.9,31.0,22.0,0000.0,0028.29,0006.68,0003.33
2022-06-10 03:58:00,,0826.9,5.00,0.00,29.1,28.1,00.0,37.9,31.1,22.1,0000.0,0028.98,0006.70,0003.34
2022-06-10 03:59:00,,0826.9,4.99,0.00,29.1,28.2,00.0,37.9,31.1,22.3,0000.0,0028.89,0006.70,0003.35
